Theta_e
319 319 318 318 318 318 318 318 318 317 317 317 317 317 317 318 318 320 326 334 335 331 331 333 338 341 350 358 346 344 344 347 346 344 344 343 343 343 346 345 344 344 346 347 348
319 319 318 318 318 318 318 319 319 318 317 318 318 318 318 318 319 320 329 329 336 332 331 331 335 338 344 352 344 346 349 349 347 346 345 344 343 345 346 344 344 344 344 347 348
320 319 319 319 318 317 317 319 320 319 318 317 318 318 318 317 319 321 323 327 330 333 331 333 335 340 341 346 345 345 351 346 348 341 342 339 343 345 346 345 343 343 345 348 349
321 320 320 319 319 318 317 318 319 319 318 318 317 318 318 318 322 326 326 325 327 328 329 331 336 339 340 343 344 346 346 345 347 347 340 343 343 346 344 345 343 342 343 349 350
322 322 321 320 320 319 317 317 318 319 318 318 317 318 319 318 319 325 325 325 325 327 326 328 334 339 339 341 344 345 343 343 346 343 343 347 346 345 344 344 344 343 343 343 345
322 322 322 322 321 319 318 317 317 318 318 318 317 317 318 321 323 324 324 324 324 323 325 326 334 337 339 342 344 345 343 342 343 343 345 345 344 345 345 344 344 344 343 343 343
323 323 323 323 321 320 318 316 316 317 318 317 317 316 317 319 325 325 324 324 323 326 327 325 331 334 337 342 342 342 344 344 344 340 344 342 343 347 345 345 344 344 344 345 344
320 323 323 323 323 321 319 316 316 316 317 317 317 316 318 320 321 324 323 324 324 324 327 328 333 332 334 342 341 341 343 347 345 342 344 341 342 342 344 344 343 344 344 345 344
319 320 323 324 324 321 319 317 316 318 319 318 316 320 324 323 322 324 323 325 324 325 325 329 329 329 332 334 339 340 342 345 346 346 346 345 344 341 343 343 343 343 343 344 344
319 319 321 324 324 322 319 317 324 323 322 320 318 326 325 324 324 324 325 325 323 324 325 328 328 327 325 327 335 340 341 344 344 345 346 345 343 343 342 343 343 343 343 344 344
320 319 320 324 324 322 318 324 329 329 326 327 325 322 325 326 327 326 325 324 323 323 321 325 324 327 328 328 338 340 341 342 343 342 346 345 342 343 342 345 343 342 343 344 343
321 320 320 323 324 321 321 322 326 327 325 327 327 327 329 329 329 324 322 322 322 321 320 320 322 325 329 330 331 338 342 343 342 342 342 344 346 343 340 345 347 343 342 343 342
321 321 321 322 323 322 322 322 324 325 324 326 326 327 327 328 329 325 324 322 323 322 320 318 321 324 327 329 329 337 340 343 340 340 339 340 341 345 342 347 347 347 343 342 342
320 321 322 322 323 322 323 323 324 323 322 325 326 327 327 329 326 326 327 326 322 322 319 319 321 324 326 327 327 326 339 341 343 339 339 338 338 347 343 347 343 344 344 342 342
319 320 322 322 322 323 321 321 325 325 332 331 325 328 326 328 326 326 326 326 322 322 320 322 323 322 323 324 325 328 338 341 342 338 336 338 337 337 341 344 344 343 345 344 343
319 320 321 323 322 324 323 321 323 324 331 330 328 328 325 328 327 326 326 326 325 322 321 321 324 321 321 323 324 327 330 333 334 332 336 334 337 337 344 344 342 341 342 346 345
321 319 320 322 323 324 323 323 323 328 328 328 326 326 323 323 324 324 322 321 320 321 319 320 321 321 323 323 323 325 322 325 329 328 331 329 334 335 340 340 339 341 339 343 346
322 320 320 322 323 323 323 320 329 330 331 327 326 323 323 322 322 323 320 320 319 318 316 318 320 322 323 323 322 325 322 323 330 329 331 331 333 334 335 335 335 338 340 342 347
323 320 321 324 323 323 324 321 325 329 330 329 324 324 324 324 324 323 319 318 318 315 318 318 320 322 323 324 322 322 322 320 323 324 326 328 333 332 340 341 340 341 342 342 347
324 321 325 329 328 324 319 321 324 327 327 328 328 323 322 322 322 321 320 320 320 318 318 319 319 320 321 325 324 322 321 322 318 327 328 330 335 331 342 342 340 341 343 344 347
324 325 330 327 329 323 321 321 325 327 327 327 327 326 322 323 321 320 322 323 321 321 317 317 318 321 322 322 321 320 320 319 318 320 328 338 334 337 340 338 338 341 342 345 346
324 325 328 327 322 319 317 321 324 325 323 322 324 326 327 324 322 321 323 323 325 323 321 318 314 318 323 320 320 319 320 317 320 323 324 330 335 338 337 334 338 339 341 342 341
323 326 326 327 321 320 320 322 323 324 324 323 325 325 326 327 323 322 324 326 327 321 322 320 316 320 323 319 320 324 322 319 317 319 325 332 340 340 343 343 341 339 336 334 336
324 325 329 328 328 323 325 326 327 328 326 327 326 327 328 326 323 323 326 326 325 325 325 324 319 320 323 322 323 327 324 323 318 322 331 343 345 341 346 344 344 343 341 343 354
323 325 329 324 326 326 324 327 331 331 327 328 326 329 330 328 331 332 325 325 324 326 324 319 327 327 326 328 330 330 330 327 324 323 338 344 345 341 342 345 347 341 348 343 353
321 326 329 329 328 325 326 330 333 332 326 327 327 328 330 334 333 336 329 321 323 324 324 320 328 329 330 329 329 337 338 331 344 344 343 340 340 335 339 337 348 354 354 353 352
324 325 326 329 323 326 326 329 332 330 331 328 328 328 334 333 334 334 335 331 327 320 320 320 325 326 331 331 331 337 339 339 338 342 342 343 338 336 338 337 343 346 346 348 351
Wind_Speed
15 15 15 15 15 15 14 14 14 13 13 13 12 12 13 12 9 11 14 10 8 5 6 9 8 7 8 1 10 8 3 8 10 3 3 15 8 14 19 27 20 7 27 37 38
15 16 16 16 16 15 15 15 15 14 13 12 13 12 13 13 11 14 13 13 12 10 9 9 11 13 4 12 8 7 3 7 11 15 8 11 10 18 15 23 14 21 25 34 41
17 17 17 17 16 16 16 15 14 14 14 13 12 12 12 12 11 6 12 15 14 11 12 13 11 10 6 20 13 4 7 1 21 7 10 6 6 4 23 12 33 31 32 42 43
17 18 18 18 17 17 17 16 15 13 13 12 11 11 12 8 2 4 3 10 11 12 13 12 9 10 4 11 10 9 21 26 13 17 4 5 12 5 12 15 34 38 36 41 41
18 18 18 19 19 18 18 16 15 13 11 12 11 10 10 6 11 2 4 4 7 12 11 11 10 5 6 4 13 2 2 27 21 23 3 10 9 5 15 30 32 34 33 30 37
18 18 19 20 20 19 19 17 14 12 10 10 10 10 8 5 2 2 4 7 4 7 11 11 5 11 8 6 6 6 7 9 10 2 6 7 10 3 22 32 31 33 31 25 25
19 19 19 20 21 20 19 17 14 11 10 8 9 11 13 19 5 8 6 1 4 5 6 11 7 10 5 4 8 22 5 1 8 4 1 1 3 2 27 34 32 31 31 27 24
19 19 20 20 22 22 20 17 13 9 8 8 8 10 11 4 16 17 11 7 5 6 7 8 7 13 3 23 6 3 3 5 3 8 0 5 5 6 24 32 29 31 31 30 28
20 21 20 21 22 23 20 16 10 8 6 6 6 6 11 7 16 20 17 13 7 7 7 6 7 5 1 7 4 3 3 5 3 8 4 4 1 5 18 25 25 28 30 30 30
21 22 21 21 22 23 18 12 9 7 5 5 8 8 9 3 9 11 14 12 10 9 6 9 3 2 4 5 4 6 3 6 3 6 11 5 11 4 10 25 26 30 31 31 32
22 23 22 21 21 23 15 5 11 2 11 13 13 18 27 8 7 13 11 15 13 8 5 4 5 5 10 7 6 9 3 4 6 9 7 13 17 12 17 17 21 25 33 33 32
22 23 23 21 21 15 10 5 12 13 12 20 24 29 30 24 10 10 12 12 5 5 3 4 4 11 10 7 5 7 3 3 4 7 7 6 9 7 7 17 21 27 32 36 33
22 23 24 21 16 7 14 11 14 17 7 18 23 24 24 8 11 15 14 18 4 4 5 8 8 11 7 11 6 6 9 7 4 4 1 2 6 5 3 4 16 18 36 36 36
22 23 24 24 6 17 5 11 9 15 4 7 5 10 18 14 7 20 13 14 3 9 7 6 12 8 7 9 5 8 13 17 8 4 4 8 4 6 6 8 8 15 32 36 39
21 22 22 22 22 19 10 7 7 5 4 3 5 4 16 12 2 11 21 19 9 7 7 9 6 9 9 14 7 19 18 19 8 6 5 4 4 5 9 7 16 21 26 37 44
21 21 24 21 21 8 6 7 11 5 5 3 8 8 6 12 8 5 16 20 14 3 1 8 6 9 11 9 10 4 5 5 6 4 2 7 5 4 10 18 15 25 30 38 42
23 21 22 24 16 13 8 8 5 3 6 4 5 7 5 7 6 4 5 6 5 3 4 6 7 5 5 4 4 6 6 2 1 1 6 5 2 7 18 13 16 25 32 24 37
24 22 21 20 16 9 4 4 2 5 7 3 3 6 7 6 6 5 8 6 4 5 2 4 7 6 3 8 8 4 8 6 5 2 4 4 5 6 3 8 26 21 19 29 35
24 21 21 9 5 12 5 2 6 6 3 8 7 6 4 4 4 5 8 10 10 8 8 5 7 5 4 5 9 5 2 7 6 1 3 4 4 4 6 5 11 23 21 25 38
24 24 12 7 12 12 4 6 6 4 8 4 3 5 8 7 5 6 7 7 7 12 10 7 4 6 9 6 1 8 5 3 4 4 3 4 4 5 4 4 2 8 20 15 33
17 14 5 18 13 8 3 7 7 16 11 5 11 9 6 5 10 8 10 6 11 8 13 6 4 11 1 5 10 0 0 5 5 5 5 3 5 14 7 7 8 3 9 16 21
7 3 5 18 5 4 3 5 7 14 26 9 7 11 7 6 6 10 16 12 24 15 9 10 6 3 5 9 3 7 9 7 5 4 0 4 4 15 6 7 5 4 3 17 16
8 8 12 19 2 3 7 9 13 23 20 6 7 9 3 3 3 8 8 10 20 9 10 7 1 2 10 7 5 2 5 6 5 4 5 5 3 7 8 17 14 14 19 17 9
4 3 4 8 19 5 4 7 8 14 15 11 12 6 5 5 4 7 8 2 11 8 15 10 4 6 6 7 4 3 4 3 6 3 3 3 8 6 7 9 15 16 13 1 7
3 4 6 4 4 6 2 7 16 13 7 10 8 4 2 6 3 2 4 3 6 11 4 6 3 4 6 7 4 2 2 4 5 5 7 14 10 9 6 14 24 16 8 12 4
2 5 8 11 12 3 4 4 16 19 7 15 3 18 1 4 5 5 4 3 4 1 4 3 3 3 2 3 11 19 18 10 6 8 13 10 3 5 12 14 31 27 19 16 12
2 7 4 7 5 2 1 8 16 15 14 21 16 5 5 7 20 9 3 10 8 8 5 5 4 3 4 6 7 11 12 7 3 4 18 11 7 14 7 11 26 26 14 15 15
Wind_Direction
360 357 354 350 346 342 337 332 328 326 323 320 317 315 310 300 286 267 250 240 251 291 319 321 320 328 275 149 84 307 6 22 3 84 158 138 124 161 149 138 155 223 159 155 159
360 358 355 351 347 344 339 333 327 324 320 317 315 315 313 309 297 254 244 244 252 273 285 290 320 327 239 149 122 19 59 49 49 37 334 357 128 130 130 151 132 129 140 162 158
358 356 355 352 349 344 340 334 327 320 317 314 312 313 311 317 315 259 243 244 244 267 282 301 320 336 283 129 109 310 42 112 87 101 308 5 342 68 140 149 151 157 141 161 165
355 353 352 351 349 345 340 334 328 318 312 311 312 311 307 309 218 94 70 224 235 251 272 293 312 342 303 111 158 141 196 134 151 174 200 56 326 285 163 175 162 154 156 160 162
351 350 349 347 347 343 339 332 325 316 307 308 309 307 305 279 244 274 331 316 266 249 264 277 302 326 20 138 141 225 309 100 116 157 185 348 5 319 125 151 158 155 166 172 173
347 347 346 344 343 340 338 331 321 311 301 299 302 300 289 267 175 157 316 296 299 268 265 259 282 333 358 59 150 205 46 39 45 101 81 44 318 19 142 148 156 162 169 181 184
345 343 342 341 339 337 336 328 318 306 295 292 291 287 273 246 181 191 213 305 300 274 289 261 279 309 20 91 156 119 100 183 71 68 84 21 25 80 156 156 161 171 175 188 194
345 342 339 338 336 333 335 325 315 300 286 286 284 279 263 261 229 229 206 219 236 259 265 278 269 295 95 131 107 91 100 106 265 148 49 76 249 188 167 159 167 176 182 192 200
343 341 338 335 333 331 335 323 313 301 292 283 269 269 265 232 222 212 214 234 231 232 252 269 276 274 109 156 112 342 205 139 217 217 115 145 34 292 176 167 172 182 188 198 207
340 339 338 335 333 329 338 332 322 290 292 289 254 301 252 269 230 219 228 226 226 255 237 218 230 41 5 79 159 218 250 66 137 202 206 230 234 234 209 181 182 187 195 204 210
336 336 337 335 333 328 342 360 3 32 312 269 271 262 282 298 268 238 226 212 230 259 146 217 98 190 248 210 149 205 124 192 190 230 161 220 250 208 233 179 189 198 199 208 213
332 333 334 336 331 330 351 21 13 317 300 281 269 270 267 275 301 203 188 189 169 196 157 30 194 217 232 271 183 195 158 239 250 238 219 236 233 214 237 202 195 197 206 207 207
329 331 332 337 331 338 335 5 355 318 291 294 249 242 244 244 235 222 191 209 169 187 185 170 229 207 216 261 256 191 161 221 197 71 138 86 321 227 264 285 210 215 212 208 206
324 328 331 335 338 331 26 356 1 356 19 276 207 235 231 240 279 226 217 207 181 202 186 207 241 214 220 244 194 182 201 190 205 109 207 162 239 252 195 253 274 250 205 208 206
318 322 323 328 319 323 306 334 324 338 356 189 183 181 192 185 248 215 216 213 199 220 107 235 202 216 223 233 218 257 182 192 179 156 71 291 94 282 119 250 249 238 220 209 208
312 316 314 317 314 336 331 292 330 45 263 272 153 159 112 208 248 24 195 215 233 222 249 235 246 157 206 228 194 221 129 65 58 80 337 245 163 250 186 219 221 248 222 211 206
307 307 305 300 297 308 319 327 43 160 312 207 174 151 159 194 250 157 197 190 189 113 314 316 286 280 200 284 2 81 67 29 152 93 218 254 24 220 213 200 196 218 232 220 206
304 307 298 284 289 247 269 60 196 250 271 284 129 134 174 172 233 197 136 188 264 111 49 184 313 215 207 179 180 149 142 148 196 200 250 19 241 261 107 285 244 230 225 221 208
308 311 296 297 220 185 162 102 219 219 311 2 349 136 250 240 171 129 180 194 205 162 170 154 273 316 175 185 135 243 144 190 121 95 72 266 296 13 87 24 109 143 166 202 195
321 322 311 201 176 169 91 234 240 238 1 354 225 199 182 227 149 167 193 211 210 188 167 232 277 239 280 149 200 153 169 39 12 171 207 291 284 221 141 161 261 92 111 129 194
322 319 351 159 158 172 174 235 282 281 318 357 303 270 204 200 194 191 206 257 195 213 159 162 123 282 112 164 189 352 101 76 122 134 158 188 278 346 167 200 131 116 98 112 149
310 306 161 163 140 193 188 225 285 298 303 273 236 220 189 199 233 198 212 204 203 197 162 201 160 200 250 275 225 153 188 139 125 248 261 142 316 332 40 352 353 123 50 126 109
315 277 187 190 252 253 278 285 280 280 280 283 288 300 256 232 248 192 205 239 208 159 179 179 59 31 340 352 9 196 208 141 114 94 222 115 237 324 46 45 37 36 23 332 348
314 321 286 229 236 193 320 283 274 293 286 271 264 288 309 321 236 203 200 332 119 130 177 114 121 151 195 217 165 286 252 139 124 125 116 122 164 278 92 100 74 74 126 112 342
241 266 351 316 332 329 303 287 297 287 271 313 306 253 302 295 13 37 23 80 52 146 91 105 159 186 232 231 192 187 257 258 160 191 131 183 169 198 205 131 116 135 256 228 278
310 349 330 300 289 276 217 272 286 279 222 288 273 291 149 215 198 176 154 67 203 224 124 22 199 181 342 220 63 31 4 84 80 106 94 145 181 223 208 167 123 119 132 147 131
229 263 296 284 306 353 224 324 324 341 297 253 276 239 133 202 218 149 200 180 212 179 140 116 123 83 292 52 74 36 343 28 125 181 143 173 190 185 240 240 151 147 168 151 140